Location: Newark
(33.6439°N, 114.9881°W)
Time: 12:53:14
(UTC+00:00)

Transit 4A - All Passes

Search period start: 18 July 2019 00:00
Search period end: 28 July 2019 00:00
Orbit: 862 x 982 km, 66.8° (Epoch: 17 July)

Date Brightness Start Highest point End Pass type
(mag) Time Alt. Az. Time Alt. Az. Time Alt. Az.
18 Jul - 09:16:16 10° SSW 09:22:33 78° ESE 09:28:59 10° NNE visible
18 Jul - 11:05:30 10° W 11:09:37 18° NW 11:13:46 10° N visible
18 Jul - 18:23:52 10° NNW 18:29:45 41° ENE 18:35:27 10° SE daylight
18 Jul - 20:10:43 10° NW 20:15:50 27° WSW 20:20:49 10° SSW daylight
19 Jul - 07:42:46 10° SE 07:46:15 15° ESE 07:49:47 10° ENE visible
19 Jul - 09:25:36 10° SSW 09:31:54 71° WNW 09:38:20 10° NNE visible
19 Jul - 11:17:06 10° WNW 11:19:25 12° NW 11:21:44 10° NNW visible
19 Jul - 18:33:00 10° NNW 18:39:13 62° ENE 18:45:12 10° SE daylight
19 Jul - 20:21:06 10° WNW 20:24:54 17° WSW 20:28:38 10° SW daylight
20 Jul - 07:50:22 10° SSE 07:55:20 25° ESE 08:00:21 10° NE visible
20 Jul - 09:35:15 10° SW 09:41:19 47° WNW 09:47:30 10° NNE visible
20 Jul - 16:57:54 10° NNE 17:01:22 15° NE 17:04:46 10° E daylight
20 Jul - 18:42:17 10° NNW 18:48:34 87° WSW 18:54:37 10° SSE daylight
21 Jul - 07:58:43 10° S 08:04:28 38° ESE 08:10:19 10° NE visible
21 Jul - 09:45:14 10° WSW 09:50:51 32° NW 09:56:32 10° N visible
21 Jul - 17:06:21 10° N 17:11:05 22° NE 17:15:42 10° E daylight
21 Jul - 18:51:45 10° NW 18:57:50 57° WSW 19:03:43 10° S daylight
22 Jul - 08:07:29 10° S 08:13:41 60° ESE 08:19:59 10° NE visible
22 Jul - 09:55:37 10° W 10:00:27 22° NW 10:05:21 10° N visible
22 Jul - 17:15:10 10° N 17:20:42 32° NE 17:26:04 10° ESE daylight
22 Jul - 19:01:26 10° NW 19:07:02 36° WSW 19:12:28 10° S daylight
23 Jul - 06:36:03 10° ESE 06:37:33 11° E 06:39:03 10° E visible
23 Jul - 08:16:38 10° SSW 08:22:57 89° ESE 08:29:26 10° NNE visible
23 Jul - 10:06:34 10° W 10:10:11 15° NW 10:13:48 10° NNW visible
23 Jul - 17:24:11 10° NNW 17:30:13 47° ENE 17:36:02 10° SE daylight
23 Jul - 19:11:27 10° NW 19:16:09 23° WSW 19:20:44 10° SSW daylight
24 Jul - 06:42:24 10° SE 06:46:34 19° ESE 06:50:46 10° ENE visible
24 Jul - 08:26:05 10° SW 08:32:20 61° WNW 08:38:42 10° NNE visible
24 Jul - 10:19:13 10° NW 10:20:01 10° NW 10:20:50 10° NW visible
24 Jul - 15:50:05 10° NNE 15:52:08 12° NE 15:54:09 10° ENE daylight
24 Jul - 17:33:23 10° NNW 17:39:38 72° ENE 17:45:39 10° SSE daylight
24 Jul - 19:22:11 10° WNW 19:25:12 14° WSW 19:28:10 10° SW daylight
25 Jul - 06:50:21 10° SSE 06:55:40 29° ESE 07:01:03 10° NE visible
25 Jul - 08:35:51 10° SW 08:41:48 41° WNW 08:47:50 10° NNE visible
25 Jul - 15:57:57 10° N 16:01:56 17° NE 16:05:49 10° E daylight
25 Jul - 17:42:43 10° NNW 17:48:58 75° WSW 17:54:58 10° SSE daylight
26 Jul - 06:58:52 10° S 07:04:49 45° ESE 07:10:53 10° NE visible
26 Jul - 08:45:58 10° WSW 08:51:21 28° NW 08:56:47 10° N visible
26 Jul - 16:06:33 10° N 16:11:36 25° NE 16:16:31 10° ESE daylight
26 Jul - 17:52:16 10° NW 17:58:12 48° WSW 18:03:56 10° S daylight
27 Jul - 07:07:47 10° SSW 07:14:04 70° ESE 07:20:27 10° NNE visible
27 Jul - 08:56:32 10° W 09:01:00 19° NW 09:05:30 10° N visible
27 Jul - 16:15:27 10° N 16:21:11 36° ENE 16:26:43 10° ESE daylight
27 Jul - 18:02:04 10° NW 18:07:21 31° WSW 18:12:32 10° SSW daylight
